KC3FDL Weather Reports


time (UTC)temp
C
wind
direction
speed
KPH
gust
KPH
rain 1hr
cm
rain 24hr
cm
rain mn
cm
humidity
%
barometer
mb
20260906191517 39 173 8.0 14.5 0.00 0.00 0.00 33 1013.5
20260906190516 38 126 3.2 12.9 0.00 0.00 0.00 34 1013.5
20260906185516 38 107 3.2 12.9 0.00 0.00 0.00 36 1013.6
20260906184517 38 122 6.4 14.5 0.00 0.00 0.00 35 1013.7
20260906183517 38 130 8.0 14.5 0.00 0.00 0.00 35 1014.0
20260906182516 38 290 6.4 11.3 0.00 0.00 0.00 35 1014.2
20260906181537 38 112 4.8 11.3 0.00 0.00 0.00 35 1014.5
20260906180516 38 236 3.2 11.3 0.00 0.00 0.00 35 1014.8
20260906175516 37 158 3.2 9.7 0.00 0.00 0.00 36 1015.0
20260906174517 37 163 4.8 12.9 0.00 0.00 0.00 37 1015.1
20260906173516 37 118 6.4 14.5 0.00 0.00 0.00 38 1015.3
20260906172517 37 312 1.6 11.3 0.00 0.00 0.00 37 1015.4
20260906171516 37 201 3.2 9.7 0.00 0.00 0.00 39 1015.5
20260906170516 37 341 3.2 9.7 0.00 0.00 0.00 40 1015.6
20260906165517 37 153 1.6 11.3 0.00 0.00 0.00 41 1015.7
20260906164516 37 248 4.8 12.9 0.00 0.00 0.00 41 1015.8
20260906163537 36 93 1.6 11.3 0.00 0.00 0.00 43 1015.9
20260906162516 36 306 3.2 9.7 0.00 0.00 0.00 43 1015.9
20260906161516 36 302 3.2 9.7 0.00 0.00 0.00 43 1015.9
20260906160537 35 325 1.6 6.4 0.00 0.00 0.00 44 1015.9
20260906155516 35 75 1.6 6.4 0.00 0.00 0.00 45 1015.9
20260906154516 35 273 1.6 6.4 0.00 0.00 0.00 46 1015.9
20260906153516 34 321 3.2 9.7 0.00 0.00 0.00 48 1015.9
20260906152517 33 290 3.2 6.4 0.00 0.00 0.00 51 1015.8
20260906151516 33 241 1.6 6.4 0.00 0.00 0.00 54 1015.7
20260906150517 32 284 1.6 6.4 0.00 0.00 0.00 56 1015.7
20260906145537 32 290 3.2 6.4 0.00 0.00 0.00 57 1015.6
20260906144516 31 241 3.2 6.4 0.00 0.00 0.00 57 1015.6
20260906143516 30 156 3.2 8.0 0.00 0.00 0.00 60 1015.6
20260906142516 30 204 1.6 6.4 0.00 0.00 0.00 60 1015.6
20260906141516 30 164 0.0 4.8 0.00 0.00 0.00 63 1015.5
20260906140516 29 121 1.6 6.4 0.00 0.00 0.00 64 1015.4
20260906135516 28 162 3.2 8.0 0.00 0.00 0.00 65 1015.2
20260906134516 28 166 4.8 8.0 0.00 0.00 0.00 67 1015.2
20260906133516 28 158 4.8 8.0 0.00 0.00 0.00 68 1015.2
20260906132516 27 121 3.2 6.4 0.00 0.00 0.00 70 1015.1
20260906131516 27 151 3.2 6.4 0.00 0.00 0.00 72 1015.1
20260906130516 26 127 1.6 4.8 0.00 0.00 0.00 73 1015.1
20260906125516 26 135 1.6 3.2 0.00 0.00 0.00 74 1015.0
20260906124518 26 153 1.6 6.4 0.00 0.00 0.00 76 1014.9
20260906123518 26 154 1.6 3.2 0.00 0.00 0.00 77 1014.8
20260906122518 26 154 1.6 3.2 0.00 0.00 0.00 77 1014.6
20260906121538 25 154 0.0 3.2 0.00 0.00 0.00 77 1014.6
20260906120518 26 124 1.6 4.8 0.00 0.00 0.00 77 1014.4
20260906115516 26 122 1.6 4.8 0.00 0.00 0.00 77 1014.4
20260906114539 26 121 1.6 3.2 0.00 0.00 0.00 76 1014.2
20260906113518 26 118 1.6 3.2 0.00 0.00 0.00 75 1014.3
20260906112539 26 118 0.0 1.6 0.00 0.00 0.00 73 1014.2
20260906111518 26 0.0 0.0 0.00 0.00 0.00 74 1014.1
20260906110538 26 118 0.0 3.2 0.00 0.00 0.00 74 1014.1
20260906105519 26 0.0 0.0 0.00 0.00 0.00 73 1014.0
20260906104518 26 0.0 0.0 0.00 0.00 0.00 74 1013.9
20260906103518 26 0.0 0.0 0.00 0.00 0.00 74 1014.0
20260906102558 26 0.0 1.6 0.00 0.00 0.00 73 1014.1
20260906101518 26 0.0 1.6 0.00 0.00 0.00 74 1014.2
20260906100538 26 118 0.0 1.6 0.00 0.00 0.00 74 1014.1
20260906095518 26 0.0 0.0 0.00 0.00 0.00 73 1014.1
20260906094518 27 118 0.0 3.2 0.00 0.00 0.00 73 1014.1
20260906093518 26 120 0.0 1.6 0.00 0.00 0.00 73 1014.0
20260906092518 26 120 0.0 3.2 0.00 0.00 0.00 74 1013.9
20260906091518 27 152 0.0 3.2 0.00 0.00 0.00 73 1013.9
20260906090519 27 152 0.0 3.2 0.00 0.00 0.00 72 1013.9
20260906085518 27 0.0 0.0 0.00 0.00 0.00 70 1013.7
20260906084518 27 0.0 0.0 0.00 0.00 0.00 70 1013.5
20260906083518 27 152 0.0 1.6 0.00 0.00 0.00 69 1013.5
20260906082519 27 152 0.0 1.6 0.00 0.00 0.00 68 1013.4
20260906081537 28 0.0 0.0 0.00 0.00 0.00 68 1013.3
20260906080558 28 0.0 0.0 0.00 0.00 0.00 66 1013.3
20260906075518 27 0.0 0.0 0.00 0.00 0.00 67 1013.3
20260906074517 27 0.0 0.0 0.00 0.00 0.00 67 1013.4
20260906073518 28 0.0 0.0 0.00 0.00 0.00 68 1013.4
20260906072517 27 0.0 0.0 0.00 0.00 0.00 69 1013.4
20260906071517 28 0.0 0.0 0.00 0.00 0.00 68 1013.5
20260906070517 28 0.0 0.0 0.00 0.00 0.00 67 1013.4
20260906065518 28 0.0 0.0 0.00 0.00 0.00 67 1013.4
20260906064518 28 0.0 0.0 0.00 0.00 0.00 66 1013.5
20260906063537 28 0.0 0.0 0.00 0.00 0.00 65 1013.5
20260906062517 28 152 0.0 3.2 0.00 0.00 0.00 64 1013.5
20260906061517 28 142 0.0 1.6 0.00 0.00 0.00 63 1013.5
20260906060518 29 0.0 16.1 0.00 0.00 0.00 62 1013.7
20260906055517 30 152 3.2 14.5 0.00 0.00 0.00 58 1013.7
20260906054518 30 11 1.6 4.8 0.00 0.00 0.00 57 1013.6
20260906053517 30 0.0 0.0 0.00 0.00 0.00 57 1013.5
20260906052517 30 0.0 0.0 0.00 0.00 0.00 58 1013.6
20260906051518 30 0.0 0.0 0.00 0.00 0.00 56 1013.5
20260906050517 30 0.0 0.0 0.00 0.00 0.00 57 1013.5
20260906045517 30 0.0 0.0 0.00 0.00 0.00 58 1013.4
20260906044539 30 0.0 0.0 0.00 0.00 0.00 59 1013.4
20260906043517 30 166 0.0 1.6 0.00 0.00 0.00 58 1013.5
20260906042618 30 0.0 1.6 0.00 0.00 0.00 56 1013.5
20260906041517 31 164 0.0 1.6 0.00 0.00 0.00 54 1013.5
20260906040517 31 0.0 0.0 0.00 0.00 0.00 53 1013.5
20260906035517 31 0.0 0.0 0.00 0.00 0.00 52 1013.5
20260906034517 31 0.0 0.0 0.00 0.00 0.00 51 1013.5
20260906033518 31 0.0 0.0 0.00 0.00 0.00 51 1013.3
20260906032517 31 0.0 0.0 0.00 0.00 0.00 52 1013.1
20260906031517 32 0.0 0.0 0.00 0.00 0.00 50 1013.0
20260906030517 32 0.0 0.0 0.00 0.00 0.00 51 1012.9
20260906025517 32 0.0 0.0 0.00 0.00 0.00 50 1013.0
20260906024518 32 0.0 0.0 0.00 0.00 0.00 50 1012.9
20260906023518 32 0.0 0.0 0.00 0.00 0.00 51 1012.7
20260906022517 32 0.0 0.0 0.00 0.00 0.00 50 1012.5
20260906021517 32 0.0 0.0 0.00 0.00 0.00 49 1012.3
20260906020517 32 0.0 0.0 0.00 0.00 0.00 49 1012.2
20260906015517 33 0.0 0.0 0.00 0.00 0.00 48 1012.1
20260906014518 33 0.0 0.0 0.00 0.00 0.00 47 1012.1
20260906013518 33 0.0 0.0 0.00 0.00 0.00 46 1012.0
20260906012518 33 0.0 0.0 0.00 0.00 0.00 45 1011.9
20260906011517 33 0.0 0.0 0.00 0.00 0.00 45 1011.9
20260906010537 34 0.0 0.0 0.00 0.00 0.00 43 1011.8
20260906005517 35 0.0 0.0 0.00 0.00 0.00 42 1011.9
20260906004539 35 0.0 1.6 0.00 0.00 0.00 39 1012.0
20260906003517 36 121 1.6 3.2 0.00 0.00 0.00 37 1012.0
20260906002517 36 116 1.6 4.8 0.00 0.00 0.00 36 1012.0
20260906001517 37 125 4.8 11.3 0.00 0.00 0.00 35 1011.9
20260906000517 37 113 3.2 11.3 0.00 0.00 0.00 34 1011.9
20260905235517 37 116 4.8 11.3 0.00 0.00 0.00 35 1011.9
20260905234517 37 76 0.0 1.6 0.00 0.00 0.00 35 1011.9
20260905234017 37 28 1.6 11.3 0.00 0.00 0.00 35 1011.8
20260905233017 37 124 3.2 3.2 0.00 0.00 0.00 35 1011.7
20260905230517 37 127 4.8 14.5 0.00 0.00 0.00 36 1011.7
20260905225517 37 125 4.8 14.5 0.00 0.00 0.00 35 1011.7
20260905224517 37 120 6.4 14.5 0.00 0.00 0.00 36 1011.7
20260905223517 37 111 4.8 14.5 0.00 0.00 0.00 35 1011.8
20260905222517 37 125 3.2 9.7 0.00 0.00 0.00 36 1011.9
20260905221517 37 115 4.8 17.7 0.00 0.00 0.00 36 1011.9
20260905220517 38 98 3.2 11.3 0.00 0.00 0.00 35 1011.9
20260905215517 38 128 6.4 16.1 0.00 0.00 0.00 35 1012.1
20260905214517 37 154 6.4 16.1 0.00 0.00 0.00 35 1012.1
20260905213517 38 114 3.2 11.3 0.00 0.00 0.00 35 1012.2
20260905212517 37 116 6.4 16.1 0.00 0.00 0.00 37 1012.3
20260905211517 37 104 3.2 17.7 0.00 0.00 0.00 38 1012.5
20260905210518 38 123 8.0 17.7 0.00 0.00 0.00 37 1012.7
20260905205517 37 149 3.2 9.7 0.00 0.00 0.00 37 1012.9
20260905204517 37 106 4.8 12.9 0.00 0.00 0.00 39 1013.0
20260905203517 37 118 11.3 17.7 0.00 0.00 0.00 39 1013.2
20260905202516 37 149 8.0 16.1 0.00 0.00 0.00 36 1013.4
20260905201617 37 19 3.2 6.4 0.00 0.00 0.00 38 1013.5
20260905201017 37 89 3.2 8.0 0.00 0.00 0.00 39 1013.7
20260905193017 37 113 6.4 20.9 0.00 0.00 0.00 38 1014.2